Home   Weather   Chatham-Kent   Past weeks

Flag for Canada Past Weather in Chatham-Kent, Ontario, Canada — Yesterday and Last 2 Weeks

Now
64 °F

Mild.


Feels Like: 64 °F
Forecast: 60 / 68 °F
Wind: 12 mph from East

Location: Erieau

Current Time: Sep 25, 2016 at 8:25:26 AM

Latest Report: Sep 25, 2016 at 7:00 AM


Visibility: N/A

Pressure: 30.19 "Hg

Humidity: 64%

Dew Point: 51 °F

Location of Chatham-KentLocation

Past Weather in Chatham-Kent — Graph

°F

Chatham-Kent Temperature Yesterday

Maximum temperature yesterday: 65 °F (at 5:00 PM)
Minimum temperature yesterday: 58 °F (at 6:00 AM)
Average temperature yesterday: 62 °F

High & Low Weather Summary for the Past Weeks

 TemperatureHumidityPressure
High79 °F (Sep 23, 11:00 AM)100% (Sep 19, 4:00 AM)30.29 "Hg (Sep 19, 4:00 AM)
Low58 °F (Sep 24, 6:00 AM)46% (Sep 11, 3:00 PM)29.71 "Hg (Sep 10, 4:00 PM)
Average70 °F75%30.08 "Hg
* Reported Sep 10 7:00 AM — Sep 25 7:00 AM, Chatham-Kent, Weather by CustomWeather, © 2016

Note: Actual official high and low records may vary slightly from our data, if they occured in-between our weather recording intervals... More about our weather records

Advertising

Chatham-Kent Weather History for the Previous 24 Hours

Scroll right to see more
 ConditionsComfort  
Time TempWeatherWind HumidityBarometerVisibility
7:00 AM
Sun, Sep 25
64 °FMild.12 mph64%30.19 "HgN/A
6:00 AM65 °FMild.13 mph65%30.19 "HgN/A
5:00 AM66 °FMild.9 mph59%30.19 "HgN/A
4:00 AM62 °FCool.5 mph74%30.20 "HgN/A
3:00 AM65 °FMild.7 mph57%30.20 "HgN/A
2:00 AM63 °FMild.5 mph66%30.20 "HgN/A
1:00 AM62 °FCool.7 mph73%30.21 "HgN/A
12:00 AM61 °FCool.6 mph68%30.20 "HgN/A
11:00 PM
Sat, Sep 24
61 °FCool.7 mph68%30.20 "HgN/A
10:00 PM61 °FCool.2 mph65%30.21 "HgN/A
9:00 PM63 °FMild.2 mph65%30.21 "HgN/A
8:00 PM64 °FMild.6 mph61%30.19 "HgN/A
7:00 PM64 °FMild.7 mph60%30.20 "HgN/A
6:00 PM65 °FMild.9 mph56%30.20 "HgN/A
5:00 PM65 °FMild.7 mph61%30.20 "HgN/A
4:00 PM64 °FMild.9 mph59%30.21 "HgN/A
3:00 PM64 °FMild.10 mph61%30.21 "HgN/A
2:00 PM64 °FMild.10 mph60%30.23 "HgN/A
1:00 PM63 °FMild.12 mph67%30.24 "HgN/A
12:00 PM63 °FMild.13 mph71%30.25 "HgN/A
11:00 AM63 °FMild.12 mph71%30.25 "HgN/A
10:00 AM62 °FCool.14 mph74%30.24 "HgN/A
9:00 AM60 °FCool.13 mph82%30.23 "HgN/A
8:00 AM58 °FCool.14 mph86%30.21 "HgN/A
Weather by CustomWeather, © 2016

See weather overviewHow to use our weather pages